Regional Weather Roundup
Issued by NWS

Home | Current Version | Previous Version | Text Only | Print | Product List | Glossary On
Versions: 1 2 3 4 5 6 7 8 9 10 11 12 13 14 15 16 17 18 19 20 21 22 23 24 25 26 27 28 29 30 31 32 33 34 35 36 37 38 39 40 41 42 43 44 45 46 47 48 49 50
000
ASHW40 PHFO 210843
RWRHI

WEATHER ROUNDUP FOR HAWAII
NATIONAL WEATHER SERVICE HONOLULU HI
1000 PM HST SUN APR 20 2014

THIS IS AN AUTOMATED REPORT THAT HAS NOT BEEN QUALITY CONTROLLED.

NOTE..."FAIR" INDICATES FEW OR NO CLOUDS BELOW 12,000 FEET WITH NO
SIGNIFICANT WEATHER AND/OR OBSTRUCTIONS TO VISIBILITY.

* - THESE SITES REPORT LIMITED FIELDS

HIZ001>004-210900-
KAUAI-NIIHAU-

CITY           SKY/WX    TMP DP  RH WIND       PRES   REMARKS
LIHUE APT      LGT RAIN  72  70  94 E18G28    30.22R FOG
PORT ALLEN*      N/A     72 N/A N/A NE16G25     N/A
POIPU*           N/A     72 N/A N/A NE13G23     N/A
PRINCEVILLE*   NOT AVBL
KOKOLE POINT*  NOT AVBL
MOLOAA DAIRY*  NOT AVBL
WAIMEA HTS*      N/A     72  63  73 N2G14       N/A
PUU OPAE*        N/A     64  61  88 CALM        N/A
PUU LUA*       NOT AVBL
MAKAHA RIDGE*  NOT AVBL
$$

HIZ005>011-210900-
OAHU-

CITY           SKY/WX    TMP DP  RH WIND       PRES   REMARKS
HONOLULU       LGT RAIN  72  68  88 NE13      30.17R
KALAELOA       LGT RAIN  72  68  88 VRB3      30.18R
KANEOHE MCB    CLOUDY    72  66  83 E13G20    30.18R
WHEELER FIELD  DRIZZLE   70  66  88 N6        30.18R
BELLOWS*       NOT AVBL
KAHUKU*          N/A    N/A N/A N/A NE9G17      N/A
WHEELER*       NOT AVBL
WAIANAE HARBOR NOT AVBL
DILLINGHAM*      N/A     70  68  94 E3          N/A
KAHUKU TRN*      N/A     68  66  94 E13G26      N/A
KAWAILOA*      NOT AVBL
KII*             N/A     73  68  83 E20G29      N/A
MAKUA RANGE*     N/A     73  72  94 N3G12       N/A
OAHU FOREST NW   N/A     64  64 100 VRB23G44    N/A
SCHOFIELD BRK*   N/A     68  66  94 MISG        N/A
SCHOFIELD S*     N/A     66 N/A N/A NE1G7       N/A
WAIANAE VLY*     N/A     68  66  94 SW7G18      N/A
KUAOKALA*        N/A     68  64  88 NE14G30     N/A
HONOULIUULI*   NOT AVBL
MOKUOLOE IS*     N/A    N/A N/A N/A MISG        N/A
PALEHUA*         N/A     75  68  78 CALM        N/A
WAIAWA PHB*    NOT AVBL
$$

HIZ012>013-210900-
MOLOKAI-

CITY           SKY/WX    TMP DP  RH WIND       PRES   REMARKS
MOLOKAI AIRPT  PTCLDY    72  70  94 NE16G29   30.16F
KALAUPAPA      NOT AVBL
MAKAPULAPAI*     N/A     73  68  83 E23G31      N/A
MOLOKAI 1*       N/A     63  63 100 NE9G25      N/A
PUU ALII*        N/A     57  57  99 E3G18       N/A
$$

HIZ016-210900-
KAHOOLAWE-

CITY           SKY/WX    TMP DP  RH WIND       PRES   REMARKS
KAHOOLAWE*       N/A     68 N/A N/A W3          N/A
HAKIOAWA*        N/A     68  64  88 MISG      30.27R
HONOKANAIA*      N/A     77  66  68 NE12G35   30.14R
KANELOA*       NOT AVBL
KEALIALALO*      N/A    N/A N/A N/A SE3G10    30.45R
LUA MAKIKA*    NOT AVBL
$$

HIZ014>015-210900-
LANAI-

CITY           SKY/WX    TMP DP  RH WIND       PRES   REMARKS
LANAI CITY     MOCLDY    70  68  94 NE14G23   30.19S
LANAI 1*         N/A     70  70 100 NE24G38     N/A
$$

HIZ017>028-210900-
MAUI-

CITY           SKY/WX    TMP DP  RH WIND       PRES   REMARKS
KAHULUI        LGT RAIN  72  68  87 E16G25    30.16R
KAPALUA-W MAUI NOT AVBL
HANA AIRPORT   NOT AVBL
HANA*            N/A     72 N/A N/A E14G23      N/A
HALEAKALA SUMM   N/A     41  36  81 E43G55      N/A
MAALAEA BAY*   NOT AVBL
HALEAKALA*     NOT AVBL
KAUPO GAP*       N/A    N/A N/A N/A N9G29       N/A
KULA 1*          N/A     53  42  65 N5G12       N/A
$$

HIZ023>026-210900-
BIG ISLAND OF HAWAII COAST AND LOWER SLOPES-

CITY           SKY/WX    TMP DP  RH WIND       PRES   REMARKS
KAILUA KONA    CLOUDY    76  63  64 SE8       30.09R
HILO           CLOUDY    69  68  96 CALM      30.18R
HONOKAA*       NOT AVBL
KAWAIHAE MWT*    N/A     79 N/A N/A N6G12       N/A
KAWAIHAE*        N/A     79 N/A N/A N6G13       N/A
SOUTH POINT*     N/A     72 N/A N/A NE24G35     N/A
UPOLU AIRPORT*   N/A    N/A N/A N/A NE22G32     N/A
KAMUELA*       SUNNY     63  59  88 NE22      30.19F
HAKALAU*         N/A     48  46  93 N1G7        N/A
KALOKO-HONOKO*   N/A     73  63  68 E5        30.08R
PALI 2*          N/A     63  57  82 N22G35      N/A
KEALAKOMO*       N/A     75  63  64 N20G30      N/A
KAUPULEHU*       N/A     70  59  68 SE6G12      N/A
KAPAPALA*        N/A     69  56  64 NE2         N/A
LOWER KAHUKU*  NOT AVBL
PUHE CS*       NOT AVBL
PUHO CS*         N/A     75  62  62 E2          N/A
PTA KEAMUKU*     N/A     61  57  88 N2G16       N/A
WAIKOLOA*        N/A     70  59  68 SE7G13      N/A
$$

HIZ027>028-210900-
BIG ISLAND OF HAWAII INTERIOR AND SUMMMITS-

CITY           SKY/WX    TMP DP  RH WIND       PRES   REMARKS
BRADSHAW FIELD CLOUDY    53  45  74 SE13G24   30.42R
MK VISITOR CEN NOT AVBL
MAUNA KEA*       N/A     32  12  43 E31         N/A  WCI  17
MAUNA LOA*       N/A    N/A N/A N/A MISG        N/A
MAUNA LOA 1*   NOT AVBL
PTA KIPUKA*      N/A     54  52  94 S5          N/A
PTA RANGE 17*    N/A     57  50  77 E17G30      N/A
PTA WEST*        N/A     72  68  88 NE3G9       N/A
NENE CABIN*    NOT AVBL
AHUMOA*          N/A     48  46  93 SE3         N/A
PTA PORTABLE*  NOT AVBL
PUU MALI*      NOT AVBL
$$

HIC003-210900-
NORTHWEST ISLANDS-

CITY           SKY/WX    TMP DP  RH WIND       PRES   REMARKS
MIDWAY ISLAND  CLEAR     73  73 100 S6        30.23R
MIDWAY NOS*    NOT AVBL
FRENCH FRIGATE NOT AVBL
$$

PHZ110>124-180-210900-
BUOY REPORTS

STATION/POSITION TIME  TEMP    WIND        PRES    WAVE   SWELL
                       AIR SEA DIR/SP/G            HT/PER HT/DIR
                 (UTC) (F)     (DEG/KT/KT) (MB)    (FT/S) (FT/D)
BUOY 51001       NOT AVBL
BUOY 51101       0800   72 74   70/ 17/ 21 1024.0R   8/ 7   3/ 90
BUOY 51100       0700   73 73   60/ 17/ 21 1023.0R
BUOY 51003       0800   77 78   50/ 17/ 21 1019.2R   9/ 8   7
BUOY 51004       0800   78 79   70/ 17/ 21 1016.0R   8/ 9   5
BARBERS PT BUOY  NOT AVBL
WAIMEA BAY BUOY  0800      75                N/A     7/11
KAILUA BAY BUOY  0800      76                N/A     8/ 7   2/ 30
LANAI BUOY       0800      78                N/A     3/14   2/200
BARBERS PT 2     0800      76                N/A     3/11   2/320
PAUWELA MAUI     NOT AVBL
HILO             0800      78                N/A     7/ 9   3/340
KANEOHE BAY BUOY 0800      75                N/A     7/ 7   2/350
HANALEI KAUAI    0800      76                N/A     8/11   3/350
KAHULUI HARBOR   0800   72 77   60/ 14/ 21 1021.3R
HONOLULU HARBOR  0800   73     100/  7/ 17 1021.5R
KILO NALU        NOT AVBL
HILO HARBOR      0800   71 77  240/  4/  5 1021.2F
MOKUOLOE         0800   73 76   80/ 14/ 19 1022.1R
NAWILIWILI       0800      76                N/A
WHOTS BUOY       NOT AVBL
BUOY 51028       NOT AVBL
$$

......................KEY........................................
  SKY/WX - SKY CONDITIONS/PRESENT WEATHER
  TMP    - TEMPERATURE IN FAHRENHEIT
  DWPT   - DEWPOINT IN FAHRENHEIT
  RH     - RELATIVE HUMIDITY IN PERCENT
  WIND   - DIRECTION AND SPEED /MPH FOR ISLANDS...KTS FOR BUOYS/
  PRES   - MEAN SEA LEVEL PRESSURE IN INCHES OF HG
  VSB    - VISIBILITY IN MILES
  HX     - HEAT INDEX
  WCI    - WIND CHILL INDEX
  VRB    - VARIABLE WIND DIRECTION
  N/A    - NOT AVAILABLE



USA.gov is the U.S. government's official web portal to all federal, state and local government web resources and services.